Location: Eurasberg
(48.3353°N, 11.0839°E)
Time: 07:14:03
(UTC+00:00)

SMAP - Pass Details

Date: 18 January 2026
Orbit: 681 x 683 km, 98.1° (Epoch: 10 February)

Event Time Altitude Azimuth Distance (km) Brightness Sun altitude
Rises 05:16:48 0° 18° (NNE) 3,056 6.5 -16.7°
Reaches altitude 10° 05:19:07 10° 24° (NNE) 2,135 5.7 -16.3°
Maximum altitude 05:23:39 50° 100° (E) 873 4.1 -15.6°
Drops below altitude 10° 05:28:09 10° 175° (S) 2,118 5.8 -14.8°
Sets 05:30:26 0° 181° (S) 3,028 6.6 -14.5°
